GFSSE_850_spd_021.txt.gz
Wind_Speed
25 25 22 20 19 17 16 16 15 14 13 13 13 11 10 10 9 9 9 10 11 11 10 10 8 7 7 5 3 3 5 6 7 6 4 3 5 6 5 8 8 9 10
26 25 22 20 19 17 16 15 14 13 14 13 12 11 11 12 12 12 13 13 14 13 13 12 12 11 10 9 8 8 7 6 7 7 5 3 2 4 5 7 7 6 7
22 23 22 20 18 17 16 15 14 14 14 13 13 13 13 12 14 14 14 14 13 12 12 11 11 11 10 10 10 10 9 8 6 7 6 3 2 4 5 6 7 8 7
23 24 22 19 17 15 14 14 13 13 13 13 13 12 13 13 14 14 12 11 10 9 9 9 9 10 10 10 10 11 11 10 8 6 7 6 5 4 6 7 9 6 6
26 24 21 18 16 15 14 13 12 13 12 12 12 12 13 14 14 13 11 10 10 10 10 11 11 11 12 11 11 11 11 11 10 7 5 6 7 6 7 8 8 6 8
23 21 19 18 16 14 13 12 13 12 12 12 13 13 14 14 13 12 10 11 12 13 14 15 16 16 16 15 15 14 13 12 11 9 8 8 10 10 9 9 9 8 5
22 21 19 17 15 14 13 12 12 12 12 13 13 14 15 15 14 13 12 13 15 16 17 17 18 17 17 18 18 17 16 15 13 11 10 10 12 12 12 10 10 9 6
21 20 18 16 15 14 12 12 12 12 12 14 14 15 15 15 15 13 13 14 15 16 16 16 16 17 16 16 17 17 17 18 16 13 12 12 12 11 12 12 11 11 11
20 19 18 16 15 13 12 12 12 12 14 15 16 15 15 14 13 12 12 12 13 13 13 13 14 14 15 14 15 16 16 17 16 15 14 13 12 11 11 11 11 11 11
19 18 16 15 15 14 12 12 11 12 15 15 15 14 13 12 11 10 9 9 9 9 9 9 10 13 15 15 15 15 16 16 16 15 13 11 10 9 11 10 11 11 10
19 16 15 14 13 13 13 12 12 14 15 15 13 11 11 9 8 7 7 6 7 6 7 8 10 12 15 18 19 19 18 18 17 16 15 13 12 11 10 10 10 10 10
20 17 14 13 12 12 13 12 13 14 14 12 9 8 7 6 4 3 3 4 3 4 6 8 10 12 16 20 22 22 22 24 22 19 15 15 15 15 15 14 12 11 9
18 16 14 13 12 12 11 12 12 13 11 8 6 6 5 3 3 2 1 0 2 4 5 7 9 11 16 21 25 26 25 24 23 22 17 16 16 17 18 18 18 17 15
18 16 14 12 11 11 11 11 11 10 7 5 3 2 3 3 2 3 3 3 3 5 7 8 8 10 18 23 25 25 26 26 25 21 18 17 16 16 17 18 20 21 21
17 14 14 13 12 12 11 10 8 7 4 3 3 3 2 3 4 4 4 5 7 8 9 11 12 15 21 24 25 25 26 25 24 23 22 22 22 21 21 22 22 24 25
16 15 15 14 13 12 11 9 8 4 3 7 10 7 7 7 6 6 6 8 10 12 14 15 18 21 24 25 26 24 23 21 20 20 22 23 24 25 25 24 23 22 22
15 17 16 16 14 13 9 9 2 8 6 16 17 12 9 7 7 8 9 11 12 14 17 19 21 25 27 24 22 23 24 25 26 25 25 25 26 27 27 27 28 27 25
16 17 18 15 16 13 8 4 11 21 17 18 15 11 7 5 7 7 9 12 16 19 18 20 22 24 22 22 22 25 26 28 29 30 30 30 29 27 26 26 28 28 29
14 16 18 15 13 12 9 13 20 17 13 5 2 3 6 5 6 10 19 26 24 19 18 22 22 21 22 23 26 29 29 29 30 31 31 27 23 22 24 26 27 29 30
17 17 20 16 10 7 15 4 8 4 6 3 6 3 3 7 15 20 20 20 20 18 22 22 23 27 29 31 31 29 29 27 23 19 19 21 27 27 25 27 30 31 32
8 12 16 15 11 10 3 6 10 5 3 0 2 6 9 14 16 16 15 15 16 19 23 26 29 31 27 28 26 23 20 12 10 15 26 24 20 26 27 29 30 32 34
9 10 12 4 11 13 11 10 4 5 3 3 6 10 15 17 16 15 16 18 22 27 29 24 21 23 24 26 24 18 13 14 10 10 14 19 18 27 23 26 31 27 28
16 15 17 16 15 13 10 8 4 2 5 8 11 13 15 14 14 16 20 22 22 21 21 23 22 24 24 22 20 12 11 10 22 12 17 17 18 21 22 22 23 25 26
21 20 20 18 17 14 9 5 2 5 8 11 12 12 12 14 16 18 21 22 23 24 23 22 21 23 20 17 16 11 12 14 16 20 15 19 21 23 22 23 26 31 28
21 20 18 15 12 8 4 3 6 8 8 9 10 12 13 15 18 21 24 27 25 25 23 21 22 17 16 15 13 11 12 12 12 15 24 21 21 19 19 18 17 18 21
19 17 15 11 8 5 4 5 7 7 9 10 11 13 15 20 22 22 24 25 26 24 20 21 19 17 16 14 13 10 11 13 16 17 21 23 26 25 22 20 17 19 20

GFSSE_850_spd_024.txt.gz
Wind_Speed
22 25 24 23 21 18 16 15 14 12 12 11 11 9 8 8 8 9 9 9 8 8 8 8 8 7 6 6 7 7 8 8 8 5 4 5 4 4 4 5 7 6 7
24 25 23 21 20 17 15 14 12 12 12 11 10 9 9 10 11 11 12 12 11 11 10 10 9 9 8 8 9 9 9 9 10 9 8 13 7 6 6 6 5 6 6
26 25 22 20 18 16 14 13 12 12 11 11 10 10 11 12 13 12 12 12 11 10 9 9 9 9 10 10 11 11 11 10 9 10 10 6 8 6 7 8 8 8 7
26 24 22 20 18 16 14 13 13 12 11 11 11 12 12 13 13 12 11 10 9 8 8 9 9 9 10 10 10 10 11 13 12 14 8 8 8 9 10 9 8 6 6
21 22 22 21 18 16 15 13 14 13 12 12 12 13 13 12 12 10 9 9 9 10 11 12 12 12 12 12 12 12 12 12 16 13 9 10 8 11 12 11 10 8 6
25 22 22 20 17 16 14 14 14 13 12 12 12 13 13 12 11 10 11 11 13 15 15 14 15 16 17 16 16 15 15 13 16 9 9 11 10 11 11 10 10 9 8
22 19 20 18 16 14 14 14 13 12 12 12 12 13 13 11 11 11 13 14 14 15 15 14 15 16 16 17 18 18 18 16 13 10 9 9 10 10 9 9 9 9 9
26 21 19 16 15 14 14 12 12 12 11 12 12 13 12 12 11 12 12 13 14 14 14 14 14 15 16 17 18 19 18 17 14 13 11 9 10 9 9 8 9 9 8
18 19 17 16 14 14 12 11 11 11 11 11 13 12 12 12 10 10 9 11 11 12 12 11 12 13 15 16 17 18 17 17 13 11 10 8 9 10 10 10 9 8 10
18 17 16 15 13 13 12 11 11 11 11 11 11 12 11 9 8 7 7 7 6 7 6 7 9 10 12 15 18 21 20 17 13 11 11 12 13 10 10 10 10 9 7
17 16 16 14 13 11 10 11 11 11 12 12 11 10 8 5 5 3 4 5 4 3 2 4 6 7 11 16 18 21 18 14 13 11 10 15 15 15 14 12 12 11 11
18 17 17 14 12 10 10 11 11 12 8 7 6 7 4 4 3 3 2 2 1 1 2 3 5 7 10 11 12 17 16 17 14 13 12 15 15 16 17 17 15 13 13
17 16 14 13 12 11 9 9 8 7 7 6 5 4 5 4 3 3 2 1 2 3 2 4 6 7 14 16 17 21 20 18 16 15 16 17 16 15 16 17 18 17 15
14 12 12 12 12 12 10 9 10 7 5 3 4 4 5 3 5 4 3 4 4 6 7 7 8 14 16 20 23 24 24 20 16 16 15 22 19 18 17 18 19 20 22
14 12 13 11 12 12 13 12 12 10 6 4 4 5 5 3 7 6 7 6 7 8 7 9 10 13 17 15 16 23 20 17 19 16 15 23 24 23 22 22 20 21 23
13 12 14 13 14 14 15 14 12 6 1 5 8 12 9 8 8 9 8 8 9 11 13 12 16 17 14 15 15 16 19 17 16 19 18 18 24 25 26 26 26 24 22
12 13 15 15 15 15 14 13 13 4 12 19 23 27 13 11 12 9 9 10 12 16 17 19 21 14 14 16 17 18 19 20 21 21 22 18 18 21 24 27 27 27 27
13 15 17 17 14 14 12 14 10 17 20 18 16 9 5 4 7 10 9 10 18 20 19 14 12 13 16 18 20 21 23 24 24 23 20 16 16 16 17 23 25 25 28
15 16 18 20 21 19 14 12 19 18 10 10 4 0 3 5 6 8 13 16 13 15 17 13 12 16 18 20 21 25 25 24 24 22 20 15 14 13 14 18 26 26 29
14 14 16 19 21 16 10 12 10 4 6 7 4 4 4 6 9 12 12 14 13 10 11 15 19 18 18 21 23 25 21 23 22 16 13 13 15 17 16 16 18 18 24
14 15 13 14 14 5 9 10 10 13 9 5 4 3 7 10 12 12 11 11 14 14 20 22 17 17 20 19 21 24 23 20 14 14 15 18 16 16 18 19 18 20 20
14 16 12 11 10 13 15 14 11 9 7 6 7 9 9 10 11 12 14 12 17 17 14 15 19 19 19 18 18 22 23 23 20 11 20 17 20 20 20 21 21 22 22
15 15 14 15 15 16 14 11 8 8 4 4 4 7 11 11 11 14 17 19 19 17 17 16 15 15 15 16 15 17 21 20 23 23 19 22 19 23 22 22 21 19 20
14 15 16 17 16 16 13 9 8 6 5 4 4 4 5 13 14 16 18 20 20 18 16 14 12 13 13 17 16 15 16 18 21 26 21 22 23 23 23 22 21 21 20
16 17 17 17 15 15 12 9 7 4 2 1 3 6 8 10 13 14 16 19 18 16 14 11 11 13 14 15 15 15 15 15 16 20 25 25 25 24 23 23 22 22 22
16 17 18 16 15 12 10 7 4 2 2 2 4 7 10 12 15 17 19 19 19 17 14 12 14 13 15 14 12 13 14 16 19 20 24 26 27 27 24 23 24 23 25

GFSSE_850_spd_030.txt.gz
Wind_Speed
23 28 25 22 22 21 19 18 16 13 12 11 10 10 10 10 11 13 14 14 14 14 14 14 14 15 15 15 14 15 15 16 16 14 12 15 13 10 9 8 8 10 8
28 30 26 24 22 21 20 17 14 12 11 10 10 10 10 11 12 13 13 13 13 13 13 13 14 14 15 15 16 16 18 18 15 14 11 17 17 13 10 10 9 9 9
29 31 27 25 23 21 19 16 13 13 10 10 10 10 11 12 12 12 12 11 12 14 15 15 17 17 18 18 18 19 20 19 15 12 14 15 18 13 11 12 11 9 9
30 31 29 25 23 20 18 15 13 12 11 10 10 11 11 11 11 10 10 12 15 17 19 20 21 21 22 21 21 20 20 18 16 11 11 16 16 12 13 13 11 9 8
27 27 27 24 21 18 17 14 12 11 10 10 11 12 12 11 10 11 12 16 18 19 20 22 22 23 24 23 22 19 18 18 16 13 8 7 10 13 13 13 13 12 10
28 27 25 21 18 16 15 13 11 11 10 11 12 12 11 11 11 13 15 16 17 19 20 21 22 22 21 21 21 19 16 20 20 9 9 14 16 15 14 13 13 13 13
27 25 25 20 17 14 13 12 12 10 9 11 12 12 12 12 13 14 15 15 16 17 18 18 19 19 21 22 22 19 16 16 16 16 10 12 20 18 16 14 14 13 12
25 24 25 20 17 13 13 13 11 10 10 11 12 12 13 13 14 13 14 14 14 14 14 14 16 17 19 21 25 21 20 16 16 13 7 11 19 20 16 15 14 14 13
24 24 26 24 22 20 15 13 11 10 11 12 12 13 13 12 12 11 11 11 11 10 10 10 11 14 16 19 21 18 19 19 17 15 14 17 18 21 17 15 15 15 14
26 16 25 22 20 18 16 13 11 10 11 13 13 13 13 12 9 7 7 6 7 6 6 7 8 12 14 16 17 17 14 16 15 15 17 19 21 23 20 16 15 14 14
24 25 24 20 16 15 14 13 11 11 12 13 14 16 12 12 9 5 8 5 4 5 7 8 10 11 12 14 14 14 10 16 12 14 18 19 21 24 23 19 16 15 14
18 20 26 22 16 13 14 14 13 15 14 12 12 11 8 6 4 4 6 8 7 10 8 12 13 10 6 10 8 14 14 16 7 8 17 21 22 24 24 22 19 17 17
25 25 24 23 20 14 15 14 17 15 13 7 9 8 9 6 3 4 1 5 10 8 8 10 12 8 16 13 13 14 17 12 11 13 16 20 22 23 24 26 23 20 18
28 25 25 23 22 14 19 16 14 17 15 11 9 7 6 4 6 5 4 6 3 4 7 7 6 10 8 12 14 15 16 16 15 17 17 20 22 23 26 24 25 23 20
23 23 19 25 22 22 18 21 22 18 14 10 7 4 6 7 6 7 9 6 5 5 5 8 8 14 18 15 17 17 18 19 18 16 18 21 23 24 23 22 21 21 21
22 19 15 21 23 22 24 20 19 14 12 10 9 4 1 6 8 10 7 5 10 12 14 14 19 20 18 12 15 15 17 18 18 19 20 21 24 25 23 18 17 20 22
20 19 20 19 24 24 24 22 20 15 12 9 5 12 7 11 8 6 7 6 11 10 14 17 19 12 12 15 16 18 20 21 23 22 23 22 18 23 20 19 22 21 25
20 21 20 23 24 22 22 22 16 11 8 7 12 13 2 5 4 4 6 9 8 11 14 17 11 13 17 16 18 22 20 23 26 20 19 22 20 22 18 19 18 17 20
20 23 22 24 24 21 26 24 15 18 18 17 17 5 2 2 1 3 7 7 8 6 9 10 14 19 20 24 21 19 23 26 17 20 18 15 13 13 12 14 16 19 18
21 22 21 24 21 23 26 26 13 17 17 11 7 3 1 1 3 1 8 9 8 4 9 15 20 22 22 21 22 21 19 20 20 17 17 12 13 13 11 19 21 18 16
21 19 18 23 21 24 22 18 11 6 5 6 5 6 5 3 3 4 6 4 8 11 14 17 18 19 24 16 22 21 21 21 14 15 14 14 14 17 17 18 16 22 25
22 22 18 22 15 18 15 9 5 7 8 8 9 6 6 4 4 3 9 11 14 17 18 14 18 20 18 18 18 23 21 25 16 20 21 22 17 18 18 20 22 21 25
20 19 16 18 11 12 11 13 13 11 15 13 4 3 6 4 4 7 10 14 17 16 15 17 20 17 17 18 14 17 24 19 27 23 20 21 23 23 21 20 23 22 22
18 16 17 15 14 14 16 15 16 13 12 10 11 13 3 10 11 11 10 14 15 19 21 17 15 19 23 18 19 18 19 25 26 27 16 20 21 20 21 22 23 19 20
18 20 18 18 17 19 18 17 15 14 18 15 12 7 4 7 5 8 10 14 15 17 19 19 21 20 19 18 20 24 23 21 19 19 25 24 23 21 22 23 25 24 24
21 20 20 20 21 18 16 16 17 15 12 10 8 5 3 10 9 12 17 21 22 17 17 18 17 21 23 24 26 22 23 22 19 18 21 23 23 25 23 24 29 28 26

GFSSE_850_spd_033.txt.gz
Wind_Speed
27 27 25 24 23 22 21 21 19 17 16 15 14 15 16 18 19 19 18 18 18 17 17 17 18 18 18 19 19 19 19 18 17 18 21 20 17 12 9 9 10 11 10
34 27 25 24 23 22 22 20 17 16 16 14 15 16 17 18 19 18 17 17 18 19 19 20 21 22 21 21 22 22 19 17 17 15 19 21 19 12 12 12 10 9 10
34 30 23 25 26 23 21 18 17 16 15 15 16 17 18 17 17 17 16 18 21 22 23 24 25 26 25 26 24 21 17 14 16 17 14 17 19 14 14 15 13 11 12
35 34 31 27 25 23 20 19 17 16 15 15 16 17 16 16 15 17 18 22 24 25 26 27 27 27 25 23 23 21 15 13 12 14 14 19 17 16 16 15 14 13 12
35 35 31 27 25 22 19 18 16 16 15 17 16 17 15 15 16 19 20 22 24 24 25 26 26 26 24 21 19 20 25 18 13 11 13 16 22 21 18 17 16 15 13
36 33 29 26 23 22 19 16 14 15 15 17 17 16 15 17 19 20 21 21 22 23 23 23 24 24 25 22 16 16 22 21 12 13 13 14 20 23 18 17 17 16 15
38 35 29 27 23 20 15 14 14 14 15 16 16 16 16 18 19 20 19 19 19 19 20 20 21 21 23 24 22 16 15 21 17 10 12 15 20 22 20 16 15 16 15
41 37 31 26 24 22 17 16 15 13 15 15 16 16 17 18 19 19 18 17 16 16 16 16 16 17 19 20 18 17 20 21 15 17 16 19 20 20 23 18 14 14 14
34 36 29 27 23 16 18 16 14 13 15 16 16 16 17 17 17 16 15 13 12 12 12 13 13 14 15 16 14 11 14 16 16 18 17 19 20 21 21 19 15 14 14
26 25 19 24 19 17 16 14 14 14 16 18 18 18 16 15 13 11 9 10 9 9 9 11 11 10 11 10 11 10 10 13 10 14 13 15 19 21 21 19 16 13 12
21 25 29 19 19 19 18 17 16 17 18 19 18 17 14 13 13 11 9 7 7 7 8 11 10 5 6 11 13 12 15 16 10 11 13 17 17 19 22 21 18 15 12
25 16 19 20 19 19 18 17 16 18 19 20 18 15 11 9 6 7 8 10 8 9 7 10 6 9 11 14 16 17 18 18 11 14 15 18 18 21 22 22 22 19 16
30 23 27 22 22 18 18 19 19 21 21 18 14 16 11 8 4 1 3 8 7 8 7 6 4 1 4 7 8 13 17 16 20 13 11 16 19 20 21 23 19 19 18
37 25 26 25 20 15 18 20 20 19 17 14 13 13 14 13 10 10 10 8 11 7 4 3 6 4 7 11 13 14 13 16 14 10 11 14 16 19 20 23 21 17 17
31 30 29 25 19 23 23 22 20 18 13 15 15 13 13 10 8 7 6 8 10 7 7 8 8 11 15 14 13 12 12 13 14 14 16 18 21 21 21 22 17 16 17
33 32 30 26 24 21 21 20 23 18 20 17 12 8 8 7 6 10 12 11 10 12 11 10 13 15 17 15 12 14 16 16 19 19 21 19 19 19 19 15 14 15 17
31 27 32 27 27 24 26 24 22 22 20 15 8 3 2 10 12 12 8 8 8 10 11 12 15 17 15 13 17 15 15 14 17 20 19 14 19 21 17 12 10 16 16
28 22 27 31 26 26 26 23 22 22 16 11 5 8 3 9 8 8 8 6 8 8 12 15 16 15 13 18 16 13 14 19 20 18 13 9 15 13 4 6 10 12 15
23 23 26 30 27 24 22 22 24 17 10 10 13 5 7 8 10 10 6 6 8 12 12 13 14 15 18 17 20 19 16 15 17 11 11 7 4 9 13 8 10 12 10
22 23 25 26 25 23 24 27 21 11 11 15 12 5 9 10 8 5 6 9 10 10 12 13 16 17 19 23 22 22 18 18 8 10 12 7 8 7 6 8 13 17 21
28 26 26 25 25 25 30 28 19 11 10 10 10 11 9 8 7 7 10 9 8 10 12 16 17 20 22 24 25 23 27 5 13 11 12 14 16 17 17 18 18 18 21
32 31 27 24 26 26 33 26 19 13 12 13 11 10 10 9 9 10 10 12 13 15 17 18 19 21 20 21 23 26 12 23 5 13 17 20 24 22 20 20 18 17 16
34 30 24 19 19 26 28 20 14 11 16 15 12 12 12 10 6 7 11 13 14 16 18 19 20 21 20 21 23 16 10 7 30 21 23 14 16 20 21 24 17 15 15
30 25 20 15 17 20 23 20 22 21 21 16 12 12 11 5 6 8 12 15 17 19 21 22 23 20 21 21 23 18 18 22 28 27 12 22 20 24 20 17 21 24 25
22 21 16 16 19 22 23 25 25 20 20 18 18 15 6 4 5 12 14 15 18 20 22 25 20 17 16 21 22 21 23 26 23 24 29 24 26 21 18 18 20 23 26
22 17 21 21 21 22 22 24 27 25 26 24 24 16 11 13 12 14 18 20 23 24 22 19 17 16 17 20 22 27 24 23 23 22 24 25 24 25 22 22 23 25 26